COSMOS 2188

Satellite information

Favourite Embed

Satellite Type and Status

PAYLOADIN ORBIT

Key statistics

Satellite COSMOS 2188 at a glance.

Uptime

12088

Days in orbit

Revolutions

≈ 12.6

Per day

Orbit

LEO

Low Earth Orbit

Inclination

74.0

Latest

Satellite identification and parameters

Extended collection of information and parameters for COSMOS 2188.

Object identification

Identified? True

Debris? False

Object name: COSMOS 2188

International designator: 1992-030B

Object number (NORAD): 21977

Object ID (CCSDS): 21977

Country: COMMONWEALTH OF INDEPENDENT STATES (CIS)

Current information (Y/N): Y

RCS size: MEDIUM

Orbital parameters

Period: 114.509 minutes

Inclination: 74.0017 deg

SMA: 7811.226 km

Apoapsis: 1477.937 km

Periapsis: 1388.244 km

RAAN: 157.5838 deg

Eccentricy: 0.0057413

Argument of periapsis: 71.7471 deg

Mean anomaly: 317.2739 deg

Mean motion: 12.57546334 rev/day

Mean motion (dot): -0.00000008 rev/day2

B* drag term: 0.000050247 1/REarth

Two-line elements (TLE)

Creation date: July 8, 2025, 2:27 a.m.

Reference frame: TEME

Reference center: EARTH

Epoch: July 7, 2025, 9:18 p.m. UTC

TLE line 0: 0 COSMOS 2188

TLE line 1: 1 21977U 92030B 25188.88802520 -.00000008 00000-0 50247-4 0 9998

TLE line 2: 2 21977 74.0017 157.5838 0057413 71.7471 317.2739 12.57546334519198

Live tracking on map

Real-time ground track for satellite COSMOS 2188.

In-orbit conjunctions

A list of the most updated potential collisions computed for object COSMOS 2188.

Target Orbit TCA Probability of collision Miss distance Type
FENGYUN 1C DEB SSO 2025-05-18 00:42:47 0.0004813694 411.0 (m) DEBRIS

Associated space launch

Military communications satellites

COSMOS 2188 was lifted into orbit during the mission ‘Kosmos-3M | Strela-1M 361-368’, on board a Kosmos-3M space rocket.

The launch took place on June 3, 1992, 12:50 a.m. from 133/3 (133L).

For more information about the launch, click the button.

Launch to space Kosmos-3M | Strela-1M 361-368
Kosmos-3M | Strela-1M 361-368

Agency: N/A

Status: Launch Successful

Launch date: June 3, 1992, 12:50 a.m. UTC

Rocket: Kosmos-3M

Launch pad: 133/3 (133L)

Location: Plesetsk Cosmodrome, Russian Federation

...

Latest news about this satellite

There are no fresh news available about this satellite. Check back as we update our databases every day.


Newsletter sign-up

Weekly statistics, charts and insights to help you stay on top of the space industry.